Weather History for Roatan, Honduras

Change the Weather History Date:

Monday, November 19, 2012

  Actual Average Record
Temperature  
Mean Temperature 75 °F -  
Max Temperature 80 °F 81 °F 89 °F (2002)
Min Temperature 70 °F 73 °F 68 °F (2008)
Cooling Degree Days 10    
Growing Degree Days 25 (Base 50)    
Moisture  
Dew Point 66 °F    
Average Humidity 68    
Maximum Humidity 83    
Minimum Humidity 48    
Precipitation  
Precipitation 0.08 in - - ()
Sea Level Pressure  
Sea Level Pressure 30.03 in    
Wind  
Wind Speed 7 mph ()    
Max Wind Speed 12 mph    
Max Gust Speed -    
Visibility 5.2 miles    
Events Rain    
Averages and records for this station are not official NWS values.
T = Trace of Precipitation, MM = Missing Value Source: Averaged Metar Reports

Daily Weather History Graph

Daily Weather History Graph

Search for Another Location

Airport:

Trip Planner

Search our weather history database for the weather conditions in past years. The results will help you decide how hot, cold, wet, or windy it might be!

Date:

Astronomy

Nov. 19, 2012 Rise Set
Actual Time 5:51 AM CST 5:11 PM CST
Civil Twilight 5:28 AM CST 5:34 PM CST
Nautical Twilight 5:02 AM CST 6:00 PM CST
Astronomical Twilight 4:36 AM CST 6:26 PM CST
Moon 11:13 AM CST (11/19) 11:13 PM CST (11/19)
Length of Visible Light 12h 05m
Length of Day
11h 19m
Waxing Crescent, 41% of the Moon is Illuminated
Nov 19
Waxing Crescent
Nov 20
First Quarter
Nov 28
Full
Dec 6
Last Quarter
Dec 13
New

Hourly Weather History & Observations

Time (CST) Temp. Dew Point Humidity Pressure Visibility Wind Dir Wind Speed Gust Speed Precip Events Conditions
6:00 AM 74 °F 68 °F 78% 30.04 in 4 mi West 11.5 mph - - Rain Light Drizzle
6:00 AM 73.4 °F 68.0 °F 83% 30.04 in 3.7 mi West 11.5 mph - N/A   Light Drizzle
7:00 AM 75.2 °F 66.2 °F 73% 30.06 in 1.9 mi NNW 9.2 mph - N/A   Light Drizzle
8:00 AM 75.2 °F 68.0 °F 78% 30.06 in 4.3 mi WNW 8.1 mph - N/A   Overcast
9:00 AM 76 °F 66 °F 64% 30.09 in 4 mi West 6.9 mph - - Rain Light Drizzle
9:00 AM 75.2 °F 66.2 °F 73% 30.06 in 3.7 mi West 6.9 mph - N/A   Light Drizzle
10:00 AM 78.8 °F 66.2 °F 65% 30.06 in 6.2 mi NNW 6.9 mph - N/A   Overcast
11:00 AM 78.8 °F 66.2 °F 65% 30.06 in 6.2 mi NW 10.4 mph - N/A   Mostly Cloudy
12:00 PM 79 °F 66 °F 57% 30.05 in 6 mi WNW 8.1 mph - -   Partly Cloudy
12:00 PM 78.8 °F 66.2 °F 65% 30.04 in 6.2 mi WNW 8.1 mph - N/A   Mostly Cloudy
1:00 PM 75.2 °F 68.0 °F 78% 30.01 in 4.3 mi WNW 9.2 mph - N/A   Mostly Cloudy
2:00 PM 75.2 °F 68.0 °F 78% 30.01 in 5.0 mi WNW 9.2 mph - N/A   Mostly Cloudy
3:00 PM 78.8 °F 64.4 °F 61% 29.98 in 6.2 mi WNW 6.9 mph - N/A   Mostly Cloudy
4:00 PM 78.8 °F 66.2 °F 65% 29.98 in 6.2 mi NW 3.5 mph - N/A   Mostly Cloudy
5:00 PM 77.0 °F 64.4 °F 65% 29.98 in 6.2 mi NW 5.8 mph - N/A   Mostly Cloudy
6:00 PM 78 °F 62 °F 48% 30.00 in 7 mi NW 4.6 mph - -   Haze
6:00 PM 77.0 °F 64.4 °F 65% 30.01 in 6.2 mi NW 5.8 mph - N/A   Mostly Cloudy
7:00 PM 77.0 °F 64.4 °F 65% 30.01 in 6.2 mi NW 5.8 mph - N/A   Mostly Cloudy
8:00 PM 77.0 °F 60.8 °F 57% 30.04 in 6.2 mi WNW 4.6 mph - N/A   Overcast